This is the latest recevied weather packets stored in our database for station/object KM4NDN. If no packets are shown the sender has not sent any weather packets the latest 10 day(s).
| Time | Temp. | Humidity | Pressure | Rain* | Wind** | Luminosity | Snow |
|---|---|---|---|---|---|---|---|
| 1778115963 | 10° C | 56% | 1011.3 hPa | 0 mm | - | 0 W/m² | - |
| 1778115658 | 10° C | 54% | 1011.4 hPa | 0 mm | - | 0 W/m² | - |
| 1778115356 | 10° C | 54% | 1011.5 hPa | 0 mm | - | 0 W/m² | - |
| 1778115052 | 10° C | 52% | 1011.5 hPa | 0 mm | - | 0 W/m² | - |
| 1778114749 | 10° C | 53% | 1011.3 hPa | 0 mm | - | 0 W/m² | - |
| 1778114447 | 10.56° C | 53% | 1011.4 hPa | 0 mm | - | 1 W/m² | - |
| 1778114142 | 10.56° C | 52% | 1011.2 hPa | 0 mm | - | 2 W/m² | - |
| 1778113838 | 10.56° C | 52% | 1011.4 hPa | 0 mm | - | 3 W/m² | - |
| 1778113535 | 10.56° C | 52% | 1011.5 hPa | 0 mm | - | 5 W/m² | - |
| 1778113231 | 10.56° C | 53% | 1011.4 hPa | 0 mm | - | 8 W/m² | - |
| 1778112927 | 10.56° C | 51% | 1011.4 hPa | 0 mm | - | 11 W/m² | - |
| 1778112625 | 11.11° C | 50% | 1011.3 hPa | 0 mm | - | 14 W/m² | - |
| 1778112321 | 11.11° C | 48% | 1011.4 hPa | 0 mm | - | 20 W/m² | - |
| 1778112016 | 11.11° C | 47% | 1011.4 hPa | 0 mm | - | 24 W/m² | - |
| 1778111714 | 11.11° C | 48% | 1011.5 hPa | 0 mm | - | 27 W/m² | - |
| 1778111409 | 11.11° C | 52% | 1011.7 hPa | 0 mm | - | 31 W/m² | - |
| 1778111107 | 11.11° C | 50% | 1011.4 hPa | 0 mm | - | 31 W/m² | - |
| 1778110804 | 11.67° C | 50% | 1011.6 hPa | 0 mm | - | 35 W/m² | - |
| 1778110501 | 11.67° C | 47% | 1011.3 hPa | 0 mm | - | 51 W/m² | - |
| 1778110197 | 11.67° C | 46% | 1011.3 hPa | 0 mm | - | 58 W/m² | - |
| 1778109894 | 11.67° C | 51% | 1011.3 hPa | 0 mm | - | 68 W/m² | - |
| 1778109590 | 11.67° C | 45% | 1011.4 hPa | 0 mm | - | 67 W/m² | - |
| 1778109287 | 11.67° C | 47% | 1011.5 hPa | 0 mm | - | 65 W/m² | - |
| 1778108984 | 11.67° C | 46% | 1011.5 hPa | 0 mm | - | 71 W/m² | - |
| 1778108680 | 11.67° C | 44% | 1011.4 hPa | 0 mm | - | 82 W/m² | - |
* Rain latest hour (hover to see other rain measurements)
** Current wind speed in m/s (hover to see current wind gust speed)